Location: Amsterdam
(42.9386°N, 74.1886°W)
Time: 20:17:53
(UTC-04:00)

OTV 5 (USA 277) - Visible Passes

Search period start: 20 October 2018 00:00
Search period end: 30 October 2018 00:00
Orbit: 387 x 394 km, 54.5° (Epoch: 08 September)

Date Brightness Start Highest point End Pass type
(mag) Time Alt. Az. Time Alt. Az. Time Alt. Az.
22 Oct ? 20:17:19 10° SW 20:17:21 10° SW 20:17:21 10° SW visible
23 Oct ? 19:21:33 10° S 19:23:43 23° SE 19:23:43 23° SE visible
24 Oct ? 18:27:12 10° SE 18:28:00 11° SE 18:28:48 10° ESE visible
24 Oct ? 20:00:16 10° SW 20:02:22 38° WSW 20:02:22 38° WSW visible
25 Oct ? 19:04:01 10° SSW 19:07:05 45° SE 19:08:29 26° ENE visible
25 Oct ? 20:40:28 10° W 20:40:53 12° WNW 20:40:53 12° WNW visible
26 Oct ? 19:43:30 10° WSW 19:46:33 41° NNW 19:46:51 40° NNW visible
27 Oct ? 18:46:52 10° SW 18:50:04 88° NNW 18:52:44 14° NE visible
27 Oct ? 20:24:09 10° WNW 20:25:08 14° NW 20:25:08 14° NW visible
28 Oct ? 19:26:56 10° W 19:29:43 26° NNW 19:30:55 20° N visible
29 Oct ? 18:30:01 10° WSW 18:33:07 47° NW 18:36:15 10° NE visible
29 Oct ? 20:07:57 10° NW 20:09:02 13° NNW 20:09:02 13° NNW visible
